Location: Lanoux
(43.1180°N, 1.4255°E)
Time: 10:49:52
(UTC+00:00)

Cosmos 1743 - Visible Passes

Search period start: 15 March 2026 00:00
Search period end: 25 March 2026 00:00
Orbit: 390 x 392 km, 82.5° (Epoch: 14 March)

Date Brightness Start Highest point End Pass type
(mag) Time Alt. Az. Time Alt. Az. Time Alt. Az.
15 Mar 1.9 04:26:29 10° N 04:29:36 83° W 04:32:42 10° S visible
16 Mar 4.9 03:33:09 10° NNE 03:35:05 19° ENE 03:35:05 19° ENE visible
16 Mar 4.1 05:06:28 10° NW 05:07:23 14° WNW 05:07:23 14° WNW visible
17 Mar 4.4 04:11:35 10° N 04:12:24 17° NNW 04:12:24 17° NNW visible
